Weather History for McComb, MS

Change the Weather History Date:

Friday, November 11, 2011

  Actual Average Record
Temperature  
Mean Temperature 48 °F -  
Max Temperature 66 °F 68 °F 83 °F (1978)
Min Temperature 30 °F 44 °F 27 °F (1977)
Degree Days  
Heating Degree Days 17    
Moisture  
Dew Point 31 °F    
Average Humidity 62    
Maximum Humidity 92    
Minimum Humidity 22    
Precipitation  
Precipitation 0.00 in - - ()
Sea Level Pressure  
Sea Level Pressure 30.24 in    
Wind  
Wind Speed 1 mph (SSW)    
Max Wind Speed 8 mph    
Max Gust Speed 16 mph    
Visibility 10 miles    
Events      
Averages and records for this station are not official NWS values.
T = Trace of Precipitation, MM = Missing Value Source: NWS Daily Summary

Daily Weather History Graph

Daily Weather History Graph

Search for Another Location

Airport:

Trip Planner

Search our weather history database for the weather conditions in past years. The results will help you decide how hot, cold, wet, or windy it might be!

Date:

Astronomy

Nov. 11, 2011 Rise Set
Actual Time 6:25 AM CST 5:05 PM CST
Civil Twilight 5:59 AM CST 5:31 PM CST
Nautical Twilight 5:30 AM CST 6:00 PM CST
Astronomical Twilight 5:02 AM CST 6:29 PM CST
Moon 5:41 PM CST (11/11) 7:08 AM CST (11/11)
Length of Visible Light 11h 31m
Length of Day
10h 40m
Full, 99% of the Moon is Illuminated
Nov 11
Full
Nov 18
Last Quarter
Nov 25
New
Dec 2
First Quarter
Dec 10
Full

Hourly Weather History & Observations

Time (CST) Temp. Dew Point Humidity Pressure Visibility Wind Dir Wind Speed Gust Speed Precip Events Conditions
12:53 AM 33.1 °F 30.9 °F 92% 30.27 in 10.0 mi Calm Calm - N/A   Clear
1:53 AM 34.0 °F 30.0 °F 85% 30.26 in 10.0 mi Calm Calm - N/A   Clear
2:53 AM 32.0 °F 28.9 °F 88% 30.26 in 10.0 mi Calm Calm - N/A   Clear
3:53 AM 30.9 °F 28.9 °F 92% 30.27 in 10.0 mi Calm Calm - N/A   Clear
4:53 AM 32.0 °F 28.9 °F 88% 30.27 in 10.0 mi Calm Calm - N/A   Clear
6:53 AM 32.0 °F 28.9 °F 88% 30.30 in 10.0 mi Calm Calm - N/A   Clear
7:53 AM 39.0 °F 35.1 °F 86% 30.30 in 10.0 mi Calm Calm - N/A   Clear
9:53 AM 55.9 °F 28.9 °F 36% 30.30 in 10.0 mi WSW 4.6 mph - N/A   Clear
10:53 AM 60.1 °F 27.0 °F 28% 30.29 in 10.0 mi Calm Calm - N/A   Clear
11:53 AM 63.0 °F 26.1 °F 25% 30.26 in 10.0 mi Calm Calm - N/A   Clear
1:53 PM 66.0 °F 26.1 °F 22% 30.21 in 10.0 mi Variable 5.8 mph - N/A   Clear
2:53 PM 64.9 °F 26.1 °F 23% 30.20 in 10.0 mi SSW 8.1 mph 16.1 mph N/A   Clear
3:53 PM 64.0 °F 28.0 °F 26% 30.20 in 10.0 mi SSW 5.8 mph - N/A   Clear
4:53 PM 60.1 °F 30.9 °F 33% 30.20 in 10.0 mi South 4.6 mph - N/A   Clear
5:53 PM 50.0 °F 36.0 °F 59% 30.21 in 10.0 mi Calm Calm - N/A   Clear
6:53 PM 48.0 °F 35.1 °F 61% 30.21 in 10.0 mi Calm Calm - N/A   Clear
7:53 PM 45.0 °F 35.1 °F 68% 30.22 in 10.0 mi Calm Calm - N/A   Clear
8:53 PM 45.0 °F 34.0 °F 65% 30.22 in 10.0 mi Calm Calm - N/A   Clear
9:53 PM 42.1 °F 33.1 °F 70% 30.22 in 10.0 mi Calm Calm - N/A   Clear
10:53 PM 39.0 °F 33.1 °F 79% 30.22 in 10.0 mi Calm Calm - N/A   Clear
11:53 PM 37.9 °F 33.1 °F 83% 30.22 in 10.0 mi Calm Calm - N/A   Clear